Weather History for Lawton, OK

Change the Weather History Date:

Saturday, February 1, 2014

  Actual Average Record
Temperature  
Mean Temperature 36 °F -  
Max Temperature 45 °F 52 °F 81 °F (1963)
Min Temperature 28 °F 29 °F 2 °F (1951)
Degree Days  
Heating Degree Days 28    
Moisture  
Dew Point 24 °F    
Average Humidity 71    
Maximum Humidity 89    
Minimum Humidity 44    
Precipitation  
Precipitation 0.00 in - - ()
Sea Level Pressure  
Sea Level Pressure 29.97 in    
Wind  
Wind Speed 15 mph (North)    
Max Wind Speed 22 mph    
Max Gust Speed 28 mph    
Visibility 9 miles    
Events      
Averages and records for this station are not official NWS values.
T = Trace of Precipitation, MM = Missing Value Source: NWS Daily Summary

Daily Weather History Graph

Daily Weather History Graph

Search for Another Location

Airport:

Trip Planner

Search our weather history database for the weather conditions in past years. The results will help you decide how hot, cold, wet, or windy it might be!

Date:

Astronomy

Feb. 01, 2014 Rise Set
Actual Time 7:31 AM CST 6:03 PM CST
Civil Twilight 7:05 AM CST 6:29 PM CST
Nautical Twilight 6:35 AM CST 6:59 PM CST
Astronomical Twilight 6:05 AM CST 7:29 PM CST
Moon 8:29 AM CST (2/1) 8:31 PM CST (2/1)
Length of Visible Light 11h 24m
Length of Day
10h 31m
Waxing Crescent, 5% of the Moon is Illuminated
Feb 1
Waxing Crescent
Feb 6
First Quarter
Feb 14
Full
Feb 22
Last Quarter
Mar 1
New

Hourly Weather History & Observations

Time (CST) Temp. Windchill Dew Point Humidity Pressure Visibility Wind Dir Wind Speed Gust Speed Precip Events Conditions
12:53 AM 30.0 °F 18.3 °F 27.0 °F 88% 29.84 in 5.0 mi North 17.3 mph 21.9 mph N/A   Overcast
1:53 AM 30.0 °F 18.3 °F 27.0 °F 88% 29.85 in 6.0 mi North 17.3 mph - N/A   Overcast
2:53 AM 28.9 °F 18.2 °F 26.1 °F 89% 29.84 in 6.0 mi North 13.8 mph - N/A   Overcast
3:53 AM 28.9 °F 17.7 °F 26.1 °F 89% 29.86 in 7.0 mi North 15.0 mph - N/A   Overcast
4:11 AM 28.4 °F 18.5 °F 24.8 °F 86% 29.83 in 7.0 mi North 11.5 mph - N/A   Scattered Clouds
4:53 AM 28.9 °F 18.6 °F 25.0 °F 85% 29.87 in 7.0 mi North 12.7 mph - N/A   Mostly Cloudy
5:01 AM 28.4 °F 17.5 °F 24.8 °F 86% 29.84 in 7.0 mi North 13.8 mph 21.9 mph N/A   Scattered Clouds
5:53 AM 28.9 °F 19.8 °F 25.0 °F 85% 29.89 in 9.0 mi North 10.4 mph - N/A   Clear
6:53 AM 28.9 °F 18.6 °F 24.1 °F 82% 29.92 in 9.0 mi North 12.7 mph - N/A   Clear
7:53 AM 28.9 °F 19.2 °F 23.0 °F 78% 29.94 in 9.0 mi North 11.5 mph - N/A   Clear
8:53 AM 30.0 °F 18.7 °F 23.0 °F 75% 29.97 in 9.0 mi North 16.1 mph - N/A   Clear
9:53 AM 32.0 °F 20.8 °F 23.0 °F 69% 29.99 in 10.0 mi North 17.3 mph - N/A   Clear
10:53 AM 35.1 °F 26.9 °F 24.1 °F 64% 30.00 in 10.0 mi North 11.5 mph - N/A   Clear
11:53 AM 37.9 °F 30.5 °F 24.1 °F 57% 29.99 in 10.0 mi North 11.5 mph - N/A   Clear
12:53 PM 41.0 °F 34.3 °F 24.1 °F 51% 29.96 in 10.0 mi North 11.5 mph - N/A   Clear
1:53 PM 43.0 °F 36.8 °F 24.1 °F 47% 29.94 in 10.0 mi North 11.5 mph - N/A   Clear
2:53 PM 45.0 °F 38.9 °F 24.1 °F 44% 29.94 in 10.0 mi North 12.7 mph - N/A   Clear
3:53 PM 43.0 °F 36.0 °F 24.1 °F 47% 29.96 in 10.0 mi North 13.8 mph - N/A   Clear
4:53 PM 41.0 °F 32.5 °F 24.1 °F 51% 29.97 in 10.0 mi NNE 17.3 mph - N/A   Clear
5:53 PM 39.0 °F 30.6 °F 23.0 °F 53% 30.01 in 10.0 mi NNE 15.0 mph - N/A   Clear
6:53 PM 36.0 °F 25.6 °F 23.0 °F 59% 30.05 in 10.0 mi North 18.4 mph - N/A   Clear
7:53 PM 33.1 °F 22.2 °F 24.1 °F 70% 30.09 in 10.0 mi NNE 17.3 mph - N/A   Mostly Cloudy
8:53 PM 32.0 °F 20.1 °F 24.1 °F 73% 30.12 in 10.0 mi NNE 19.6 mph - N/A   Overcast
9:53 PM 32.0 °F 19.5 °F 25.0 °F 75% 30.15 in 10.0 mi North 21.9 mph 26.5 mph N/A   Overcast
10:53 PM 33.1 °F 21.5 °F 25.0 °F 72% 30.17 in 10.0 mi North 19.6 mph 27.6 mph N/A   Overcast
11:53 PM 32.0 °F 20.1 °F 24.1 °F 73% 30.17 in 10.0 mi NNE 19.6 mph 26.5 mph N/A   Overcast